This is the latest recevied weather packets stored in our database for station/object KE0YJJ-14. If no packets are shown the sender has not sent any weather packets the latest 10 day(s).
| Time | Temp. | Humidity | Pressure | Rain* | Wind** | Luminosity | Snow |
|---|---|---|---|---|---|---|---|
| 1777929878 | 16.67° C | 36% | - | 0 mm | - | - | - |
| 1777929576 | 16.67° C | 35% | - | 0 mm | - | - | - |
| 1777929272 | 16.67° C | 36% | - | 0 mm | - | - | - |
| 1777928970 | 15.56° C | 38% | - | 0 mm | - | - | - |
| 1777928666 | 16.11° C | 37% | - | 0 mm | - | - | - |
| 1777928364 | 15.56° C | 37% | - | 0 mm | - | - | - |
| 1777928061 | 15° C | 38% | - | 0 mm | - | - | - |
| 1777927759 | 15.56° C | 36% | - | 0 mm | - | - | - |
| 1777927457 | 16.11° C | 34% | - | 0 mm | - | - | - |
| 1777927156 | 16.11° C | 33% | - | 0 mm | - | - | - |
| 1777926854 | 16.67° C | 32% | - | 0 mm | - | - | - |
| 1777926549 | 16.67° C | 30% | - | 0 mm | - | - | - |
| 1777926246 | 16.67° C | 30% | - | 0 mm | - | - | - |
| 1777925943 | 16.67° C | 31% | - | 0 mm | - | - | - |
| 1777925640 | 16.67° C | 31% | - | 0 mm | - | - | - |
| 1777925337 | 17.78° C | 30% | - | 0 mm | - | - | - |
| 1777925034 | 17.78° C | 29% | - | 0 mm | - | - | - |
| 1777924731 | 17.78° C | 30% | - | 0 mm | - | - | - |
| 1777924426 | 16.67° C | 30% | - | 0 mm | - | - | - |
| 1777924123 | 17.78° C | 30% | - | 0 mm | - | - | - |
| 1777923819 | 17.78° C | 25% | - | 0 mm | - | - | - |
| 1777923515 | 17.78° C | 27% | - | 0 mm | - | - | - |
| 1777923212 | 17.78° C | 28% | - | 0 mm | - | - | - |
| 1777922911 | 17.78° C | 28% | - | 0 mm | - | - | - |
| 1777922609 | 17.78° C | 29% | - | 0 mm | - | - | - |
* Rain latest hour (hover to see other rain measurements)
** Current wind speed in m/s (hover to see current wind gust speed)